Flag for Norway Weather past 2 weeks in Stavanger, Norway

43 °F

Scattered showers. Broken clouds.

Feels Like: 33 °F
Forecast: 43 / 45 °F
Wind: 28 mph from West

Location: Stavanger / Sola

Current Time: Nov 29, 2015 at 9:58:28 AM

Latest Report: Nov 29, 2015 at 9:20 AM

Visibility: N/A

Pressure: 29.03 "Hg

Humidity: 76%

Dew point: 36 °F

Location of StavangerLocation

Historic Weather in Stavanger — Graph


Stavanger temperature yesterday

Maximum temperature yesterday: 45 °F (at 12:50 PM)
Minimum temperature yesterday: 39 °F (at 1:50 AM)
Average temperature yesterday: 43 °F

Past Weeks' High & Low Weather Summary

High52 °F (Nov 16, 10:50 AM)100% (Nov 15, 6:20 PM)30.04 "Hg (Nov 15, 6:20 PM)
Low23 °F (Nov 22, 6:50 AM)52% (Nov 22, 2:20 PM)28.97 "Hg (Nov 29, 1:50 AM)
Average42 °F83%29.50 "Hg
* Reported Nov 14 7:20 AM — Nov 29 7:50 AM, Stavanger, Weather by CustomWeather, © 2015

Note: Actual official high and low records may vary slightly from our data, if they occured in-between our weather recording intervals... More about our weather records


Stavanger weather history for previous 24 hours

Time TempWeatherWind HumidityBarometerVisibility
7:50 AM
Sun, Nov 29
43 °FScattered showers. Passing clouds.15 mph76%29.03 "HgN/A
7:20 AM45 °FRain showers. Partly cloudy.21 mph66%29.00 "HgN/A
6:50 AM43 °FThundershowers. Partly cloudy.13 mph76%29.00 "HgN/A
5:50 AM43 °FPassing clouds.17 mph71%29.00 "HgN/A
5:20 AM43 °FLight rain. Partly cloudy.20 mph76%29.00 "HgN/A
4:50 AM41 °FPassing clouds.7 mph81%29.00 "HgN/A
3:50 AM43 °FPassing clouds.10 mph76%28.97 "HgN/A
2:50 AM43 °FLight rain. Partly cloudy.16 mph87%28.97 "Hg5 mi
1:50 AM45 °FPartly cloudy.6 mph76%28.97 "HgN/A
12:50 AM43 °FPartly cloudy.5 mph93%29.00 "HgN/A
11:50 PM
Sat, Nov 28
45 °FLight rain. Passing clouds.8 mph87%29.00 "HgN/A
10:50 PM45 °FLight rain. Partly cloudy.18 mph93%29.00 "Hg5 mi
9:50 PM45 °FSprinkles. Partly cloudy.21 mph93%29.03 "Hg5 mi
9:20 PM45 °FRain showers. Partly cloudy.22 mph93%29.06 "Hg5 mi
8:50 PM45 °FRain showers. Partly cloudy.25 mph87%29.06 "Hg6 mi
8:20 PM45 °FSprinkles. Partly cloudy.28 mph87%29.09 "Hg6 mi
7:50 PM43 °FSprinkles. Partly cloudy.22 mph93%29.12 "Hg5 mi
7:20 PM43 °FRain showers. Passing clouds.23 mph93%29.12 "Hg4 mi
6:50 PM43 °FRain showers. Passing clouds.24 mph87%29.15 "Hg4 mi
6:20 PM43 °FPassing clouds.22 mph81%29.18 "HgN/A
5:50 PM43 °FSprinkles. Passing clouds.17 mph76%29.21 "HgN/A
5:20 PM43 °FSprinkles. Passing clouds.16 mph81%29.24 "HgN/A
4:50 PM41 °FScattered showers. Partly cloudy.10 mph87%29.27 "HgN/A
4:20 PM41 °FScattered showers. Partly cloudy.12 mph81%29.30 "HgN/A
3:50 PM41 °FPartly sunny.9 mph76%29.30 "HgN/A
3:20 PM45 °FScattered showers. Scattered clouds.10 mph66%29.30 "HgN/A
2:50 PM45 °FScattered showers. Scattered clouds.12 mph61%29.33 "HgN/A
2:20 PM43 °FScattered showers. Scattered clouds.7 mph76%29.33 "HgN/A
1:50 PM45 °FScattered showers. Scattered clouds.12 mph66%29.36 "HgN/A
1:20 PM45 °FScattered showers. Scattered clouds.15 mph66%29.36 "HgN/A
12:50 PM45 °FScattered showers. Scattered clouds.16 mph66%29.36 "HgN/A
12:20 PM39 °FSprinkles. Broken clouds.12 mph87%29.36 "HgN/A
11:50 AM43 °FScattered showers. Broken clouds.14 mph76%29.36 "HgN/A
11:20 AM43 °FScattered showers. Scattered clouds.15 mph71%29.36 "HgN/A
10:50 AM39 °FScattered showers. Broken clouds.1 mph81%29.36 "HgN/A
10:20 AM43 °FSprinkles. Partly sunny.17 mph71%29.36 "HgN/A
9:50 AM43 °FScattered clouds.15 mph66%29.36 "HgN/A
9:20 AM43 °FScattered clouds.14 mph66%29.36 "HgN/A
Weather by CustomWeather, © 2015

See weather overviewHow to use our weather pages